Regional Weather Roundup
Issued by NWS Wakefield, VA

Current Version | Previous Version | Text Only | Print | Product List | Glossary Off
Versions: 1 2 3 4 5 6 7 8 9 10 11 12 13 14 15 16 17 18 19 20 21 22 23 24 25 26 27

000
ASUS41 KAKQ 110515
RWRAKQ

REGIONAL WEATHER ROUNDUP
NATIONAL WEATHER SERVICE WAKEFIELD VA
1200 AM EST MON DEC 11 2017

Note: "fair" indicates few or no clouds below 12,000 feet with no
significant weather and/or obstructions to visibility. * = Denotes
station may not report precipitation (e.g., rain,snow,etc.),
thunder or fog.

VAZ042-051-052>054-056-110600-
NORTHERN VIRGINIA

CITY           SKY/WX    TMP DP  RH WIND       PRES   REMARKS
WASH NATIONAL  CLOUDY    37  28  70 SW7       30.07R
DULLES         CLOUDY    34  26  72 S3        30.04S
FORT BELVOIR   PTCLDY    37  25  62 SW3       30.06R
QUANTICO       CLOUDY    37  27  67 SW5       30.07F
FREDERICKSBRG* CLOUDY    36  29  75 SW6       30.06S
STAFFORD*      CLOUDY    35  27  73 CALM      30.09S
WARRENTON      CLOUDY    37  22  55 S3        30.04R
CULPEPER*      CLOUDY    36  23  58 CALM      30.05S
MANASSAS*      CLOUDY    34  26  72 S3        30.06R
LEESBURG*      CLOUDY    34  30  86 SW5       30.04S
WINCHESTER     MOCLDY    32  21  64 SW5       30.01S
FRONT ROYAL*   CLOUDY    34  19  55 SW3       30.01S
LURAY*         CLOUDY    34  23  64 SW5       30.01S
$$

VAZ048-049-060>072-079>083-110600-
CENTRAL AND SOUTH CENTRAL VIRGINIA

CITY           SKY/WX    TMP DP  RH WIND       PRES   REMARKS
RICHMOND       CLOUDY    34  28  79 S8        30.09F
CHESTERFIELD*  NOT AVBL
PETERSBURG*    MOCLDY    30  25  80 CALM      30.11S
HANOVER        CLOUDY    37  24  59 SW8       30.09F
TAPPAHANNOCK*    N/A    N/A N/A N/A MISG        N/A
QUINTON*       CLOUDY    35  27  73 SW6       30.10S
CHARLOTTSVILLE CLOUDY    36  23  59 S6        30.02F
GORDONSVILLE*  CLOUDY    34  26  72 SW5       30.04S
ORANGE*        CLOUDY    34  25  69 CALM      30.04F
LOUISA*        CLOUDY    34  25  69 S6        30.10R
BUMPASS*       CLOUDY    34  25  68 SW6       30.06S
FARMVILLE*     PTCLDY    35  28  74 SW6       30.07R
CREWE*         MOCLDY    32  26  76 CALM      30.08F
FORT PICKETT*  NOT AVBL
CHASE CITY*    FAIR      28  28 100 CALM      30.12R
CLARKSVILLE*   FAIR      28  28 100 S3        30.12S
SOUTH HILL*    CLEAR     28  26  93 SW6       30.16F
LAWRENCEVILLE* FAIR      27  25  95 CALM      30.10F
EMPORIA*       CLEAR     27  27 100 CALM      30.14S
$$

VAZ088>098-110600-
SOUTHEAST VIRGINIA

CITY           SKY/WX    TMP DP  RH WIND       PRES   REMARKS
NORFOLK        CLEAR     31  27  85 SW10      30.12F WCI  22
VIRGINIA BEACH CLEAR     30  24  78 S3        30.13F
NORFOLK NAVAL  CLEAR     36  27  69 SW9       30.14F
WEST POINT*    CLOUDY   N/A N/A N/A SW5       30.12F
SALUDA*        CLOUDY    35  28  76 SW3       30.10F
NEWPORT NEWS   CLEAR     34  27  75 SW9       30.12F
LANGLEY AFB    CLEAR     35  28  75 SW9       30.11F
FORT EUSTIS    CLEAR     36  28  71 SW6       30.09F
WILLIAMSBURG*  CLEAR     36  28  75 CALM      30.12F
HR EXEC AP*    FAIR      27  25  92 S5        30.14F
FRANKLIN*      CLEAR     29  26  87 S3        30.14F
US460-WAKEFLD  CLEAR     30  27  88 CALM      30.12F
$$

VAZ020-022-025-037-045-110600-
WEST CENTRAL AND SOUTHWEST VIRGINIA

CITY           SKY/WX    TMP DP  RH WIND       PRES   REMARKS
STAUNTON*      CLOUDY    33  21  60 SW7       30.03S
WAYNESBORO*    CLOUDY    33  19  56 W5        30.00F
HOT SPRINGS VA CLOUDY    27  12  51 W23G29    29.91F WCI  13
LYNCHBURG      PTCLDY    32  22  66 SW5       30.06S
DANVILLE       CLEAR     26  22  84 CALM      30.13R
SOUTH BOSTON*  FAIR      28  25  87 SW3       30.12S
MARTINSVILLE   CLEAR     25  24  93 SW5       30.13S
ROANOKE        CLEAR     35  16  45 W9        30.08F
BLACKSBURG     CLEAR     28  18  66 CALM      30.06F
DUBLIN*        CLEAR     30  19  64 SW6       30.06F
MARION*        CLEAR     31  16  55 W25G35    30.05F WCI  17
HILLSVILLE*    CLEAR     31  17  56 W13G18    30.02F WCI  21
RICHLANDS*     MOCLDY    31  18  57 W14G21    30.07F WCI  21
WISE*          CLEAR     32  21  64 SW6       30.09S
ABINGDON*      MOCLDY    30  20  64 W7        30.14R
$$

MDZ021>025-VAZ099-100-110600-
SOUTHERN MARYLAND AND THE DELMARVA PENINSULA

CITY           SKY/WX    TMP DP  RH WIND       PRES   REMARKS
PATUXENT RIVER CLOUDY    36  30  79 SW10      30.07F
BAY BRIDGE APT CLOUDY    37  28  70 SW8       30.06S
LEONARDTOWN    CLOUDY    36  28  75 SW7       30.08F
DOVER          CLOUDY    34  33  97 S8        30.05F
GEORGETOWN     CLOUDY    34  29  82 SW6       30.07F
EASTON         CLOUDY    38  29  71 SW6       30.10S
CAMBRIDGE      CLOUDY    37  28  70 S6        30.07F
SALISBURY      CLOUDY    32  30  92 S3        30.08F
OCEAN CITY     CLOUDY    36  30  79 SW7       30.10F
WALLOPS ISLAND CLOUDY    35  30  82 SW6       30.10F
ACCOMACK*      CLOUDY    40  30  67 W8        30.10F
$$

NCZ012>017-030>032-110600-
NORTH CENTRAL AND EASTERN NORTH CAROLINA

CITY           SKY/WX    TMP DP  RH WIND       PRES   REMARKS
ROANOKE RAPIDS FAIR      30  28  93 CALM      30.13F
RALEIGH        CLEAR     30  25  81 SW6       30.15R
ELIZABETH CITY CLEAR     33  30  88 SW7       30.16S
AHOSKIE*       CLEAR     28  26  93 CALM      30.14F
EDENTON*       CLEAR     40  32  74 SW8       30.17S
CURRITUCK*     CLEAR     31  30  97 CALM      30.16S
KILL DEVIL HLS CLEAR     38  29  72 SW5       30.15S
MANTEO         CLEAR     39  31  73 W9        30.17F
CAPE HATTERAS  CLEAR     41  30  65 W8        30.19S
TARBORO*       NOT AVBL
GOLDSBORO      CLEAR     34  26  71 S7        30.14F
WASHINGTON     CLEAR     33  27  79 S3        30.18S
GREENVILLE     CLEAR     32  28  86 SW6       30.18S
NEW BERN       CLEAR     32  28  85 SW7       30.20F
WILMINGTON     CLEAR     36  28  73 SW6       30.21S
$$

VAZ048-110600-
ELSEWHERE

CITY           SKY/WX    TMP DP  RH WIND       PRES   REMARKS
HARRISBURG PA  CLOUDY    36  21  54 W3        30.00F
BALTIMORE      CLOUDY    34  28  79 CALM      30.05S
ANNAPOLIS      CLOUDY    37  29  72 SW3       30.05S
ANDREWS AFB    PTCLDY    35  26  69 SW7       30.04S
PHILADELPHIA   CLOUDY    36  26  67 S9        30.05S
HENDERSON NC   CLEAR     26  22  84 CALM      30.12S
GREENSBORO     CLEAR     31  23  72 W6        30.12R
ROCKY MOUNT    CLEAR     31  27  85 CALM      30.15F
$$

VAZ100-110600-
MARINE

STATION/POSITION TIME  TEMP    WIND        PRES    WAVE   SWELL
                       AIR SEA DIR/SP/G            HT/PER HT/PER
                 (UTC) (F)     (DEG/KT/KT) (MB)    (FT/S) (FT/S)
BRANDYWINE LGT   0442   39     240/ 22/ 25 1018.4F
CAPE MAY NJ      0448   39 43  240/ 18/ 20 1017.7F
LEWES DE         0442   35 45  250/  7/ 10 1018.4F
15NM E FENWICK I 0450   42 54  240/ 17/ 23 1018.9F   3/ 8   2/ 8
OCEAN-CITY-INLET 0442   37 43  260/  8/  9 1019.3F
WACHAPREAGUE VA  0442   35 43  230/  2/  3 1019.4F
THOMAS POINT MD  0500   38 47  230/ 14/ 16   N/A
GOOSES REEF MD   0500   39 48  220/ 16/ 17 1018.2    2/ 3
COVE POINT MD    0442   37     230/ 12/ 16 1018.6F
SOLOMONS ISLAND  0442   38 48  220/ 11/ 14 1017.8F
BISHOPS HEAD MD  0442   41 38  230/ 18/ 21 1018.8F
PINEY POINT MD   0442          240/ 15/ 17   N/A
POTOMAC MD       0500   40 49  230/ 17/ 21 1017.8    2/ 3
CAMBRIDGE MD     0442   37 45              1018.9F
LEWISETTA VA     0442   37 44  240/ 10/ 11 1018.7F
RAPPAHANNOCK LGT 0442          230/ 17/ 19 1019.8F
STINGRAY PT      0500   39 49  260/ 14/ 17 1019.4    1/ 2
YORK RVR RNG VA  0442   39     250/ 16/ 18 1019.9F
YORKTOWN VA      0442   37 50  220/  7/  9 1019.4F
JAMESTOWN VA     0500      48  210/ 10/ 12   N/A     0
DOMINION TERM VA 0442   38     210/  8/  9 1020.4F
KIPTOPEKE VA     0442      48  260/ 17/ 19   N/A
CAPE HENRY VA    0442   33     200/  6/  8   N/A
WILLOUBY STN VA  0442   38     230/ 15/ 17 1019.7F
S CRANEY ISL VA  0442   36     210/  6/ 10 1020.2F
CAPE HENRY BUOY  0500      56                N/A     3/ 9
1ST LANDING BUOY 0500   39 49  250/ 14/ 16 1019.9    1/ 3
CAPE CHARLES BUO 0451      54                N/A     2/ 9
64NM E OF VA BCH 0450   45 60  260/ 17/ 21 1020.3F   5/ 5   2/ 9
DUCK PIER NC     0442   42 52  230/ 11/ 14 1020.6F
44100 DUCK FRF   0415      57                N/A     3/ 9   2/11
44056 DUCK FRF   0500      54                N/A     2/ 8
OREGON INLET NC  0442   42 49  230/ 14/ 17 1021.4F
HATTERAS NC      0442   42 53  240/  7/ 10 1021.9F
DIAMOND SHLS NC  0450   48 75  270/ 16/ 19 1022.2F   4/ 7   3/ 7
CAPE LOOKOUT NC  0500          270/ 13/ 16 1022.6F
$$




USA.gov is the U.S. government's official web portal to all federal, state and local government web resources and services.